| time (UTC) | temp C | wind direction | speed KPH | gust KPH | rain 1hr cm | rain 24hr cm | rain mn cm | humidity % | barometer mb |
| 20260505181536 | 21 | 277 | 8.0 | 16.1 | 0.00 | 0.00 | 0.00 | 51 | 1015.2 |
| 20260505180034 | 21 | 281 | 8.0 | 17.7 | 0.00 | 0.00 | 0.00 | 53 | 1015.2 |
| 20260505174531 | 20 | 273 | 11.3 | 20.9 | 0.00 | 0.00 | 0.00 | 54 | 1015.3 |
| 20260505173041 | 20 | 257 | 11.3 | 24.1 | 0.00 | 0.00 | 0.00 | 55 | 1015.3 |
| 20260505171649 | 20 | 264 | 11.3 | 20.9 | 0.00 | 0.00 | 0.00 | 57 | 1015.2 |
| 20260505164529 | 18 | 281 | 9.7 | 19.3 | 0.00 | 0.00 | 0.00 | 59 | 1015.3 |
| 20260505163107 | 18 | 281 | 11.3 | 20.9 | 0.00 | 0.00 | 0.00 | 60 | 1015.3 |
| 20260505161535 | 17 | 301 | 11.3 | 22.5 | 0.00 | 0.00 | 0.00 | 61 | 1015.3 |
| 20260505153034 | 17 | 301 | 9.7 | 19.3 | 0.00 | 0.00 | 0.00 | 64 | 1015.1 |
| 20260505124531 | 15 | 340 | 4.8 | 12.9 | 0.00 | 0.00 | 0.00 | 70 | 1013.7 |
| 20260505123037 | 15 | 341 | 4.8 | 16.1 | 0.00 | 0.00 | 0.00 | 69 | 1013.5 |
| 20260505121532 | 15 | 327 | 4.8 | 12.9 | 0.00 | 0.00 | 0.00 | 68 | 1013.4 |
| 20260505120142 | 16 | 316 | 4.8 | 16.1 | 0.00 | 0.00 | 0.00 | 67 | 1013.3 |
| 20260505113034 | 16 | 299 | 8.0 | 22.5 | 0.00 | 0.00 | 0.00 | 67 | 1013.1 |
| 20260505111551 | 16 | 296 | 4.8 | 12.9 | 0.00 | 0.00 | 0.00 | 67 | 1013.0 |
| 20260505100045 | 17 | 294 | 9.7 | 22.5 | 0.00 | 0.00 | 0.00 | 65 | 1012.4 |
| 20260505094530 | 17 | 305 | 8.0 | 20.9 | 0.00 | 0.00 | 0.00 | 65 | 1012.3 |
| 20260505093030 | 17 | 295 | 9.7 | 19.3 | 0.00 | 0.00 | 0.00 | 65 | 1012.3 |
| 20260505091535 | 17 | 307 | 6.4 | 17.7 | 0.00 | 0.00 | 0.00 | 64 | 1012.2 |
| 20260505090106 | 17 | 330 | 6.4 | 16.1 | 0.00 | 0.00 | 0.00 | 63 | 1012.0 |
| 20260505084531 | 18 | 316 | 4.8 | 11.3 | 0.00 | 0.00 | 0.00 | 62 | 1012.0 |
| 20260505081530 | 18 | 298 | 6.4 | 12.9 | 0.00 | 0.00 | 0.00 | 61 | 1012.0 |
| 20260505074536 | 18 | 282 | 8.0 | 25.7 | 0.00 | 0.00 | 0.00 | 60 | 1011.8 |
| 20260505073036 | 18 | 279 | 8.0 | 17.7 | 0.00 | 0.00 | 0.00 | 60 | 1011.7 |
| 20260505071536 | 19 | 281 | 6.4 | 17.7 | 0.00 | 0.00 | 0.00 | 59 | 1011.6 |
| 20260505070030 | 19 | 268 | 6.4 | 17.7 | 0.00 | 0.00 | 0.00 | 58 | 1011.5 |
| 20260505064528 | 19 | 279 | 8.0 | 24.1 | 0.00 | 0.00 | 0.00 | 57 | 1011.3 |
| 20260505063031 | 20 | 259 | 6.4 | 20.9 | 0.00 | 0.00 | 0.00 | 55 | 1011.3 |
| 20260505061535 | 20 | 267 | 11.3 | 30.6 | 0.00 | 0.00 | 0.00 | 54 | 1011.2 |
| 20260505060031 | 20 | 263 | 14.5 | 30.6 | 0.00 | 0.00 | 0.00 | 53 | 1011.1 |
| 20260505054536 | 20 | 271 | 12.9 | 33.8 | 0.00 | 0.00 | 0.00 | 52 | 1011.0 |
| 20260505053106 | 21 | 269 | 12.9 | 35.4 | 0.00 | 0.00 | 0.00 | 50 | 1010.8 |
| 20260505051535 | 21 | 268 | 16.1 | 33.8 | 0.00 | 0.00 | 0.00 | 50 | 1010.5 |
| 20260505050145 | 21 | 271 | 19.3 | 35.4 | 0.00 | 0.00 | 0.00 | 48 | 1010.4 |
| 20260505041607 | 22 | 264 | 12.9 | 27.4 | 0.00 | 0.00 | 0.00 | 46 | 1010.1 |
| 20260505040047 | 22 | 273 | 16.1 | 38.6 | 0.00 | 0.00 | 0.00 | 46 | 1009.9 |
| 20260505034530 | 22 | 267 | 14.5 | 29.0 | 0.00 | 0.00 | 0.00 | 46 | 1009.7 |
| 20260505033035 | 22 | 267 | 14.5 | 32.2 | 0.00 | 0.00 | 0.00 | 45 | 1009.5 |
| 20260505031534 | 22 | 265 | 14.5 | 35.4 | 0.00 | 0.00 | 0.00 | 45 | 1009.4 |
| 20260505030037 | 23 | 273 | 16.1 | 33.8 | 0.00 | 0.00 | 0.00 | 44 | 1009.1 |
| 20260505024605 | 23 | 264 | 16.1 | 35.4 | 0.00 | 0.00 | 0.00 | 43 | 1008.9 |
| 20260505023036 | 24 | 263 | 14.5 | 29.0 | 0.00 | 0.00 | 0.00 | 42 | 1008.8 |
| 20260505021531 | 25 | 268 | 11.3 | 20.9 | 0.00 | 0.00 | 0.00 | 41 | 1008.8 |
| 20260505020033 | 25 | 266 | 16.1 | 32.2 | 0.00 | 0.00 | 0.00 | 41 | 1008.8 |
| 20260505014533 | 26 | 267 | 14.5 | 29.0 | 0.00 | 0.00 | 0.00 | 40 | 1008.7 |
| 20260505013032 | 26 | 269 | 11.3 | 25.7 | 0.00 | 0.00 | 0.00 | 39 | 1008.7 |
| 20260505011536 | 26 | 281 | 14.5 | 25.7 | 0.00 | 0.00 | 0.00 | 39 | 1008.7 |
| 20260505010106 | 27 | 289 | 12.9 | 29.0 | 0.00 | 0.00 | 0.00 | 38 | 1008.6 |
| 20260505004607 | 27 | 272 | 11.3 | 27.4 | 0.00 | 0.00 | 0.00 | 37 | 1008.6 |
| 20260505003036 | 27 | 266 | 16.1 | 29.0 | 0.00 | 0.00 | 0.00 | 36 | 1008.6 |
| 20260505001531 | 27 | 277 | 14.5 | 33.8 | 0.00 | 0.00 | 0.00 | 36 | 1008.7 |
| 20260505000040 | 27 | 278 | 16.1 | 33.8 | 0.00 | 0.00 | 0.00 | 35 | 1008.6 |
| 20260504234607 | 27 | 277 | 17.7 | 29.0 | 0.00 | 0.00 | 0.00 | 35 | 1008.7 |
| 20260504233031 | 27 | 277 | 17.7 | 33.8 | 0.00 | 0.00 | 0.00 | 36 | 1008.7 |
| 20260504231529 | 27 | 280 | 17.7 | 32.2 | 0.00 | 0.00 | 0.00 | 36 | 1008.8 |
| 20260504230107 | 28 | 290 | 12.9 | 24.1 | 0.00 | 0.00 | 0.00 | 36 | 1009.0 |
| 20260504224537 | 28 | 287 | 12.9 | 27.4 | 0.00 | 0.00 | 0.00 | 35 | 1009.2 |
| 20260504223106 | 28 | 296 | 11.3 | 20.9 | 0.00 | 0.00 | 0.00 | 35 | 1009.4 |
| 20260504221536 | 27 | 283 | 12.9 | 30.6 | 0.00 | 0.00 | 0.00 | 35 | 1009.5 |
| 20260504220147 | 28 | 290 | 14.5 | 27.4 | 0.00 | 0.00 | 0.00 | 35 | 1009.7 |
| 20260504214607 | 28 | 299 | 11.3 | 25.7 | 0.00 | 0.00 | 0.00 | 34 | 1009.9 |
| 20260504213115 | 28 | 294 | 11.3 | 25.7 | 0.00 | 0.00 | 0.00 | 34 | 1010.0 |
| 20260504211537 | 28 | 290 | 11.3 | 22.5 | 0.00 | 0.00 | 0.00 | 33 | 1010.2 |
| 20260504210041 | 28 | 296 | 6.4 | 19.3 | 0.00 | 0.00 | 0.00 | 33 | 1010.3 |
| 20260504204531 | 28 | 291 | 8.0 | 17.7 | 0.00 | 0.00 | 0.00 | 33 | 1010.4 |
| 20260504203033 | 28 | 287 | 8.0 | 17.7 | 0.00 | 0.00 | 0.00 | 34 | 1010.6 |
| 20260504201530 | 28 | 301 | 8.0 | 19.3 | 0.00 | 0.00 | 0.00 | 34 | 1010.7 |
| 20260504200034 | 28 | 328 | 4.8 | 12.9 | 0.00 | 0.00 | 0.00 | 36 | 1010.9 |
| 20260504194536 | 27 | 327 | 6.4 | 19.3 | 0.00 | 0.00 | 0.00 | 37 | 1010.9 |
| 20260504193036 | 27 | 321 | 8.0 | 20.9 | 0.00 | 0.00 | 0.00 | 36 | 1011.0 |
| 20260504184644 | 26 | 311 | 6.4 | 14.5 | 0.00 | 0.00 | 0.00 | 38 | 1011.3 |
| 20260504183036 | 25 | 307 | 8.0 | 16.1 | 0.00 | 0.00 | 0.00 | 38 | 1011.4 |